Terug naar catalogus

THORAD DELTA 1 DEB

ActiefSSO
NORAD 8181·DEBRIS·🇺🇸 United States

Gelanceerd Nov 15, 1974 vanaf Vandenberg Space Force Base

Loading…

Volgende Passages (komende 24 uur)

TLE

VersSource: Space-Track

Epoch: Sep 14, 2026, 13:02 UTC

1  8181U 74089AX  26257.54363639  .00000051  00000-0  69174-3 0  9993
2  8181 101.6965   0.6188 0068289 192.7873 236.3732 12.40357043345457

Volg THORAD DELTA 1 DEB in realtime met AllMySat

Download on the App Store